Location: ?
(35.4214°N, 139.3011°E)
Time: 22:38:41
(UTC+00:00)

Cosmos 2219 Rocket - Pass Details

Date: 14 July 2020
Orbit: 827 x 848 km, 71.0° (Epoch: 10 August)

Event Time Altitude Azimuth Distance (km) Brightness Sun altitude
Rises 11:14:56 0° 228° (SW) 3,354 5.4 -13.8°
Reaches altitude 10° 11:17:39 10° 239° (WSW) 2,426 4.8 -14.2°
Maximum altitude 11:22:29 30° 299° (WNW) 1,454 4.2 -15.0°
Drops below altitude 10° 11:27:21 10° 360° (N) 2,446 5.2 -15.7°
Sets 11:30:07 0° 11° (N) 3,387 5.8 -16.1°
